This is the latest recevied weather packets stored in our database for station/object WA3NOA-2. If no packets are shown the sender has not sent any weather packets the latest 10 day(s).
| Time | Temp. | Humidity | Pressure | Rain* | Wind** | Luminosity | Snow |
|---|---|---|---|---|---|---|---|
| 1778007427 | 27.22° C | 37% | 1002.8 hPa | 0 mm | - | - | - |
| 1778007127 | 27.22° C | 38% | 1002.8 hPa | 0 mm | - | - | - |
| 1778006888 | 27.22° C | 38% | 1003 hPa | 0 mm | - | - | - |
| 1778006827 | 27.22° C | 39% | 1003.1 hPa | 0 mm | - | - | - |
| 1778006527 | 26.67° C | 37% | 1003.2 hPa | 0 mm | - | - | - |
| 1778006227 | 26.67° C | 38% | 1003.2 hPa | 0 mm | - | - | - |
| 1778005988 | 26.67° C | 38% | 1003.2 hPa | 0 mm | - | - | - |
| 1778005927 | 26.67° C | 39% | 1003.2 hPa | 0 mm | - | - | - |
| 1778005627 | 27.22° C | 36% | 1003.3 hPa | 0 mm | - | - | - |
| 1778005327 | 26.67° C | 39% | 1003.2 hPa | 0 mm | - | - | - |
| 1778005088 | 26.67° C | 39% | 1003.4 hPa | 0 mm | - | - | - |
| 1778005027 | 26.67° C | 38% | 1003.5 hPa | 0 mm | - | - | - |
| 1778004727 | 26.67° C | 41% | 1003.5 hPa | 0 mm | - | - | - |
| 1778004427 | 26.67° C | 40% | 1003.5 hPa | 0 mm | - | - | - |
| 1778004188 | 26.67° C | 40% | 1003.6 hPa | 0 mm | - | - | - |
| 1778004127 | 26.67° C | 40% | 1003.6 hPa | 0 mm | - | - | - |
| 1778003827 | 26.67° C | 41% | 1003.6 hPa | 0 mm | - | - | - |
| 1778003527 | 27.22° C | 39% | 1003.6 hPa | 0 mm | - | - | - |
| 1778003288 | 27.22° C | 41% | 1003.6 hPa | 0 mm | - | - | - |
| 1778003227 | 27.22° C | 43% | 1003.5 hPa | 0 mm | - | - | - |
| 1778002927 | 27.22° C | 42% | 1003.7 hPa | 0 mm | - | - | - |
| 1778002627 | 27.22° C | 44% | 1003.7 hPa | 0 mm | - | - | - |
| 1778002388 | 27.22° C | 40% | 1003.6 hPa | 0 mm | - | - | - |
| 1778002327 | 27.22° C | 42% | 1003.9 hPa | 0 mm | - | - | - |
| 1778002027 | 26.67° C | 45% | 1003.7 hPa | 0 mm | - | - | - |
* Rain latest hour (hover to see other rain measurements)
** Current wind speed in m/s (hover to see current wind gust speed)